Platteville, WI

5:06 PM CST on December 08, 2019 (GMT -0600)
Platteville Municipal

Weather History for KPVB - November, 2019

Change the Weather History Date:

Friday, November 15, 2019

  Actual Average (WUND) Record (WUND)
Temperature  
Mean Temperature 28 °F -  
Max Temperature 40 °F - - (-1)
Min Temperature 16 °F - - (-1)
Degree Days  
Heating Degree Days 37    
Moisture  
Dew Point 25 °F    
Average Humidity 90    
Maximum Humidity 100    
Minimum Humidity 72    
Precipitation  
Precipitation 0.00 in - - ()
Sea Level Pressure  
Sea Level Pressure 30.33 in    
Wind  
Wind Speed 4 mph ()    
Max Wind Speed 8 mph    
Max Gust Speed -    
Visibility 9.8 miles    
Events      
Averages and records for this station are not official NWS values.
T = Trace of Precipitation, MM = Missing Value Source: Averaged Metar Reports

Daily Weather History Graph

Daily Weather History Graph

Search for Another Location

Airport or City:

Astronomy

Nov. 15, 2019 Rise Set
Actual Time 6:53 AM CST 4:39 PM CST
Civil Twilight 6:22 AM CST 5:09 PM CST
Nautical Twilight 5:48 AM CST 5:43 PM CST
Astronomical Twilight 5:15 AM CST 6:16 PM CST
Moon 7:12 PM CST (11/15) 9:52 AM CST (11/15)
Length of Visible Light 10h 46m
Length of Day
9h 45m
Waning Gibbous, 90% of the Moon is Illuminated
Nov 15
Waning Gibbous
Nov 19
Last Quarter
Nov 26
New
Dec 4
First Quarter
Dec 11
Full

Hourly Weather History & Observations

Time (CST) Temp. Windchill Dew Point Humidity Pressure Visibility Wind Dir Wind Speed Gust Speed Precip Events Conditions
12:15 AM 16.7 °F 8.3 °F 16.3 °F 98% 30.28 in 10.0 mi SSW 5.8 mph - N/A   Clear
12:35 AM 17.1 °F 7.6 °F 16.7 °F 98% 30.28 in 10.0 mi SSW 6.9 mph - N/A   Clear
12:55 AM 17.2 °F 6.8 °F 16.7 °F 98% 30.28 in 10.0 mi SSW 8.1 mph - N/A   Clear
1:15 AM 18.1 °F 7.9 °F 17.6 °F 98% 30.28 in 10.0 mi SSW 8.1 mph - N/A   Clear
1:35 AM 17.6 °F 9.3 °F 17.2 °F 98% 30.27 in 10.0 mi SSW 5.8 mph - N/A   Clear
1:55 AM 17.1 °F 8.7 °F 16.7 °F 98% 30.28 in 10.0 mi SSW 5.8 mph - N/A   Clear
2:15 AM 17.4 °F 9.1 °F 17.2 °F 99% 30.28 in 10.0 mi SSW 5.8 mph - N/A   Clear
2:35 AM 16.5 °F 8.1 °F 16.3 °F 99% 30.28 in 10.0 mi SSW 5.8 mph - N/A   Clear
2:55 AM 16.7 °F 9.6 °F 16.7 °F 100% 30.28 in 10.0 mi SW 4.6 mph - N/A   Clear
3:15 AM 18.1 °F 11.3 °F 18.1 °F 100% 30.28 in 10.0 mi WSW 4.6 mph - N/A   Clear
3:35 AM 18.1 °F 12.9 °F 18.1 °F 100% 30.28 in 10.0 mi SW 3.5 mph - N/A   Clear
3:55 AM 17.4 °F 10.4 °F 17.4 °F 100% 30.29 in 10.0 mi SW 4.6 mph - N/A   Clear
4:15 AM 17.6 °F 10.7 °F 17.6 °F 100% 30.29 in 10.0 mi SW 4.6 mph - N/A   Clear
4:35 AM 17.6 °F 12.3 °F 17.6 °F 100% 30.29 in 10.0 mi SW 3.5 mph - N/A   Clear
4:55 AM 17.4 °F 10.4 °F 17.4 °F 100% 30.29 in 10.0 mi SW 4.6 mph - N/A   Clear
5:15 AM 17.4 °F 10.4 °F 17.4 °F 100% 30.30 in 10.0 mi SW 4.6 mph - N/A   Clear
5:35 AM 17.6 °F 10.7 °F 17.6 °F 100% 30.30 in 10.0 mi SW 4.6 mph - N/A   Clear
5:55 AM 18.0 °F 12.7 °F 18.0 °F 100% 30.30 in 10.0 mi WSW 3.5 mph - N/A   Clear
6:15 AM 18.5 °F 11.7 °F 18.5 °F 100% 30.30 in 10.0 mi WSW 4.6 mph - N/A   Clear
6:35 AM 19.0 °F 12.3 °F 19.0 °F 100% 30.30 in 10.0 mi WSW 4.6 mph - N/A   Clear
6:55 AM 17.4 °F 12.1 °F 17.4 °F 100% 30.31 in 7.0 mi WSW 3.5 mph - N/A   Clear
7:15 AM 18.5 °F 13.3 °F 18.5 °F 100% 30.31 in 7.0 mi West 3.5 mph - N/A   Clear
7:35 AM 19.8 °F 14.7 °F 19.8 °F 100% 30.32 in 7.0 mi WSW 3.5 mph - N/A   Clear
7:55 AM 19.8 °F - 19.8 °F 100% 30.32 in 7.0 mi Calm Calm - N/A   Clear
8:15 AM 21.4 °F - 21.4 °F 100% 30.33 in 10.0 mi Calm Calm - N/A   Clear
8:35 AM 22.8 °F 18.2 °F 22.6 °F 99% 30.34 in 10.0 mi WSW 3.5 mph - N/A   Clear
9:15 AM 25.7 °F 20.1 °F 23.7 °F 92% 30.34 in 10.0 mi West 4.6 mph - N/A   Scattered Clouds
9:35 AM 27.0 °F 23.0 °F 24.4 °F 90% 30.35 in 10.0 mi West 3.5 mph - N/A   Overcast
9:55 AM 28.2 °F 22.0 °F 25.3 °F 89% 30.35 in 10.0 mi NW 5.8 mph - N/A   Overcast
10:15 AM 29.1 °F 24.1 °F 25.5 °F 86% 30.36 in 10.0 mi West 4.6 mph - N/A   Overcast
10:35 AM 30.0 °F 25.2 °F 26.1 °F 85% 30.36 in 10.0 mi West 4.6 mph - N/A   Mostly Cloudy
10:55 AM 31.8 °F - 26.8 °F 82% 30.36 in 10.0 mi Calm Calm - N/A   Scattered Clouds
11:15 AM 32.9 °F - 27.7 °F 81% 30.36 in 10.0 mi Calm Calm - N/A   Clear
11:35 AM 34.2 °F - 28.0 °F 78% 30.36 in 10.0 mi Calm Calm - N/A   Clear
11:55 AM 35.8 °F - 28.6 °F 75% 30.35 in 10.0 mi Calm Calm - N/A   Clear
12:15 PM 36.7 °F 34.1 °F 29.3 °F 75% 30.35 in 10.0 mi SSW 3.5 mph - N/A   Clear
12:35 PM 37.8 °F - 30.2 °F 74% 30.34 in 10.0 mi Calm Calm - N/A   Clear
12:55 PM 38.3 °F - 30.0 °F 72% 30.34 in 10.0 mi Calm Calm - N/A   Clear
1:15 PM 38.7 °F - 30.7 °F 73% 30.34 in 10.0 mi Calm Calm - N/A   Clear
1:35 PM 38.8 °F - 30.9 °F 73% 30.34 in 10.0 mi Calm Calm - N/A   Clear
1:55 PM 39.2 °F - 31.1 °F 73% 30.34 in 10.0 mi Calm Calm - N/A   Clear
2:15 PM 39.4 °F - 31.5 °F 73% 30.34 in 10.0 mi Calm Calm - N/A   Clear
2:35 PM 39.4 °F - 32.2 °F 75% 30.34 in 10.0 mi Calm Calm - N/A   Clear
2:55 PM 39.6 °F - 32.0 °F 74% 30.34 in 10.0 mi Calm Calm - N/A   Clear
3:15 PM 40.1 °F - 32.0 °F 73% 30.35 in 10.0 mi Calm Calm - N/A   Clear
3:55 PM 39.2 °F - 32.0 °F 75% 30.36 in 10.0 mi Calm Calm - N/A   Clear
4:15 PM 38.8 °F - 31.8 °F 76% 30.35 in 10.0 mi Calm Calm - N/A   Clear
4:35 PM 37.6 °F 35.1 °F 32.0 °F 80% 30.35 in 10.0 mi East 3.5 mph - N/A   Clear
4:55 PM 36.3 °F 32.5 °F 31.6 °F 83% 30.35 in 10.0 mi East 4.6 mph - N/A   Clear
5:15 PM 35.8 °F 31.9 °F 31.3 °F 84% 30.35 in 10.0 mi East 4.6 mph - N/A   Clear
5:35 PM 34.9 °F 32.0 °F 31.3 °F 87% 30.35 in 10.0 mi ESE 3.5 mph - N/A   Clear
5:55 PM 35.4 °F 32.6 °F 31.5 °F 85% 30.35 in 10.0 mi SE 3.5 mph - N/A   Clear
6:15 PM 34.7 °F 31.8 °F 31.1 °F 87% 30.36 in 10.0 mi SE 3.5 mph - N/A   Clear
6:35 PM 35.2 °F 31.2 °F 31.1 °F 85% 30.36 in 10.0 mi SE 4.6 mph - N/A   Clear
6:55 PM 34.2 °F 29.0 °F 30.9 °F 88% 30.36 in 10.0 mi East 5.8 mph - N/A   Clear
7:15 PM 33.8 °F 29.6 °F 30.9 °F 89% 30.36 in 10.0 mi East 4.6 mph - N/A   Clear
7:35 PM 33.3 °F 27.1 °F 30.9 °F 91% 30.36 in 10.0 mi East 6.9 mph - N/A   Clear
7:55 PM 32.7 °F 26.4 °F 30.9 °F 93% 30.37 in 10.0 mi East 6.9 mph - N/A   Clear
8:15 PM 32.0 °F 27.5 °F 30.6 °F 94% 30.37 in 10.0 mi ESE 4.6 mph - N/A   Clear
8:35 PM 32.0 °F 26.4 °F 30.9 °F 96% 30.37 in 10.0 mi ESE 5.8 mph - N/A   Clear
8:55 PM 32.0 °F 26.4 °F 30.7 °F 95% 30.37 in 10.0 mi ESE 5.8 mph - N/A   Clear
9:15 PM 31.8 °F 26.2 °F 30.2 °F 94% 30.38 in 10.0 mi ESE 5.8 mph - N/A   Clear
9:55 PM 31.6 °F 26.0 °F 30.2 °F 94% 30.38 in 10.0 mi ESE 5.8 mph - N/A   Clear
10:15 PM 30.9 °F 25.2 °F 29.7 °F 95% 30.38 in 10.0 mi ESE 5.8 mph - N/A   Clear
10:35 PM 30.7 °F 24.9 °F 29.8 °F 96% 30.38 in 10.0 mi ESE 5.8 mph - N/A   Clear
10:55 PM 30.0 °F 26.5 °F 29.7 °F 99% 30.39 in 10.0 mi ESE 3.5 mph - N/A   Clear
11:15 PM 30.9 °F 26.2 °F 30.0 °F 96% 30.39 in 10.0 mi ESE 4.6 mph - N/A   Clear
11:35 PM 30.2 °F 25.4 °F 29.3 °F 96% 30.39 in 10.0 mi ESE 4.6 mph - N/A   Clear
11:55 PM 30.0 °F 25.2 °F 29.3 °F 97% 30.38 in 10.0 mi ESE 4.6 mph - N/A   Clear